Regional Weather Roundup
Issued by NWS

Home | Current Version | Previous Version | Text Only | Print | Product List | Glossary Off
Versions: 1 2 3 4 5 6 7 8 9 10 11 12 13 14 15 16 17 18 19 20 21 22 23 24 25 26 27 28 29 30 31 32 33 34 35 36 37 38 39 40 41 42 43 44 45 46 47 48 49 50

000
ASUS45 KABQ 231601
RWRNM
WEATHER ROUNDUP FOR NEW MEXICO
NATIONAL WEATHER SERVICE ALBUQUERQUE NM
1000 AM MDT THU OCT 23 2014

NOTE: "FAIR" MEANS FEW OR NO CLOUDS BELOW 12,000 FEET AGL WITH NO
       SIGNIFICANT WEATHER OR OBSTRUCTIONS TO VISION.

      THIS PRODUCT IS RELEASED AS TWO VERSIONS.  ONE VERSION NEAR
      THE TOP OF THE HOUR CONTAINING PRELIMINARY DATA FROM ALBUQUERQUE
      AND OTHER STATIONS.  A FINAL VERSION WITH ADDITIONAL DATA IS
      ISSUED ABOUT 10 MINUTES AFTER THE HOUR.

NMZ501-503-504-510>518-231700-
NORTHWEST PLATEAU/NORTHCENTRAL MOUNTAINS

CITY           SKY/WX    TMP DP  RH WIND       PRES   REMARKS
FARMINGTON     SUNNY     51  38  60 E7        30.31R
LOS ALAMOS     SUNNY     50  35  55 CALM      30.36S
SANTA FE       SUNNY     55  35  47 N13       30.32S
TAOS           SUNNY     52  34  50 CALM      30.37F
ANGEL FIRE     FAIR      44  33  65 CALM      30.40F

$$
NMZ402-403-502-505>509-231700-
WESTCENTRAL MOUNTAINS/SOUTHWEST MOUNTAINS

CITY           SKY/WX    TMP DP  RH WIND       PRES   REMARKS
GALLUP         SUNNY     50  37  61 CALM      30.35R
GRANTS         SUNNY     48  36  61 CALM      30.37S
SILVER CITY    SUNNY     63  48  59 CALM      30.31S

$$
NMZ407-409-411-412-231700-
SOUTHERN DESERTS

CITY           SKY/WX    TMP DP  RH WIND       PRES   REMARKS
LORDSBURG      FAIR      63  50  63 MISG      30.24S
DEMING         SUNNY     64  52  64 CALM      30.25R
LAS CRUCES     SUNNY     67  53  60 NW3       30.28R
HOLLOMAN AFB   SUNNY     63  53  68 W6        30.25R
T OR C         NOT AVBL

$$
NMZ519>523-231700-
CENTRAL VALLEYS/CENTRAL HIGHLANDS

CITY           SKY/WX    TMP DP  RH WIND       PRES   REMARKS
ALBUQUERQUE    SUNNY     59  42  53 NW5       30.30S
DOUBLE EAGLE   SUNNY     59  45  58 E3        30.31S
MORIARTY ARPT  FAIR      55  42  61 CALM      30.33F
CLINES CORNERS SUNNY     58  39  49 NW12      30.33S
BELEN          FAIR      59  40  50 E3        30.30S
SOCORRO        FAIR      60  45  58 N6        30.29R

$$
NMZ524>526-539-540-231700-
SOUTHCENTRAL MOUNTAINS

CITY           SKY/WX    TMP DP  RH WIND       PRES   REMARKS
RUIDOSO        SUNNY     59  45  58 W5        30.36R

$$
NMZ527>531-231700-
NORTHEAST HIGHLANDS/NORTHEAST PLAINS

CITY           SKY/WX    TMP DP  RH WIND       PRES   REMARKS
LAS VEGAS      SUNNY     59  34  39 N8        30.31S
RATON          SUNNY     56  37  49 CALM      30.25F
CLAYTON        SUNNY     70  40  33 N16       30.19R

$$
NMZ532>537-231700-
EASTCENTRAL PLAINS

CITY           SKY/WX    TMP DP  RH WIND       PRES   REMARKS
TUCUMCARI      SUNNY     64  49  57 W9        30.17R
CANNON AFB     SUNNY     62  56  82 W9        30.20R
CLOVIS AIRPORT SUNNY     64  54  68 W10       30.22R

$$
NMZ028-029-538-231700-
SOUTHEAST PLAINS

CITY           SKY/WX    TMP DP  RH WIND       PRES   REMARKS
ROSWELL        CLOUDY    58  57  97 CALM      30.20R FOG
CARLSBAD       CLOUDY    59  57  93 E3        30.18R FOG
HOBBS          FOG       57  57 100 CALM      30.21R VSB 1/4


$$



USA.gov is the U.S. government's official web portal to all federal, state and local government web resources and services.